Location: Observatory Park - Geauga Park District
(41.5832°N, 81.0716°W)
Time: 13:05:58
(UTC-04:00)

Tiangong - Visible Passes

Search period start: 26 September 2021 00:00
Search period end: 06 October 2021 00:00
Orbit: 382 x 385 km, 41.5° (Epoch: 26 September)

Date Brightness Start Highest point End Pass type
(mag) Time Alt. Az. Time Alt. Az. Time Alt. Az.
26 Sep 2.8 06:08:47 13° SSW 06:10:56 26° SSE 06:13:37 10° E visible
27 Sep 3.7 05:11:56 15° SE 05:11:56 15° SE 05:13:15 10° ESE visible
27 Sep 1.5 06:44:31 10° WSW 06:47:37 58° SSE 06:50:44 10° E visible
28 Sep 1.9 05:47:13 36° S 05:47:45 40° SSE 05:50:45 10° E visible
29 Sep 4.3 04:50:13 12° E 04:50:13 12° E 04:50:38 10° E visible
29 Sep 1.1 06:22:25 19° WSW 06:24:31 77° S 06:27:41 10° E visible
30 Sep 2.2 05:25:24 42° ESE 05:25:24 42° ESE 05:27:43 10° E visible
01 Oct 0.9 06:00:32 44° W 06:01:25 89° S 06:04:35 10° E visible
02 Oct 3.7 05:03:29 20° E 05:03:29 20° E 05:04:37 10° E visible
02 Oct 1.0 06:35:40 14° W 06:38:17 82° S 06:41:26 10° E visible
03 Oct 1.2 05:38:37 70° E 05:38:37 70° E 05:41:28 10° E visible
04 Oct 1.1 06:13:48 30° W 06:15:07 64° SSW 06:18:15 10° ESE visible
05 Oct 3.2 05:16:49 25° ESE 05:16:49 25° ESE 05:18:19 10° E visible
05 Oct 2.2 06:49:01 10° W 06:51:46 30° SSW 06:54:34 10° SE visible
